Valladolid Airport, Spain

1:22 PM CEST on September 21, 2017 (GMT +0200)
Villanubla

Weather History for LEVD - July, 2013

Change the Weather History Date:

Sunday, July 7, 2013

  Actual Average Record
Temperature  
Mean Temperature 74 °F -  
Max Temperature 91 °F - - ()
Min Temperature 57 °F - - ()
Cooling Degree Days 9    
Growing Degree Days 24 (Base 50)    
Moisture  
Dew Point 45 °F    
Average Humidity 32    
Maximum Humidity 72    
Minimum Humidity 13    
Precipitation  
Precipitation 0.00 in - - ()
Sea Level Pressure  
Sea Level Pressure 30.23 in    
Wind  
Wind Speed 6 mph ()    
Max Wind Speed 13 mph    
Max Gust Speed -    
T = Trace of Precipitation, MM = Missing Value Source: Averaged Metar Reports

Daily Weather History Graph

Daily Weather History Graph

Search for Another Location

Airport or City:

Trip Planner

Search our weather history database for the weather conditions in past years. The results will help you decide how hot, cold, wet, or windy it might be!

Date:

Astronomy

Jul. 07, 2013 Rise Set
Actual Time 6:52 AM CEST 9:56 PM CEST
Civil Twilight 6:18 AM CEST 10:29 PM CEST
Nautical Twilight 5:35 AM CEST 11:12 PM CEST
Astronomical Twilight 4:44 AM CEST 12:03 AM CEST
Moon 6:16 AM CEST (7/7) 9:09 PM CEST (7/7)
Length of Visible Light 16h 11m
Length of Day
15h 04m
Waning Crescent, 1% of the Moon is Illuminated
Jul 7
Waning Crescent
Jul 8
New
Jul 16
First Quarter
Jul 22
Full
Jul 29
Last Quarter

Hourly Weather History & Observations

Time (CEST) Temp. Heat Index Dew Point Humidity Pressure Visibility Wind Dir Wind Speed Gust Speed Precip Events Conditions
7:00 AM 57.2 °F - 48.2 °F 72% 30.24 in - ENE 4.6 mph - N/A   Clear
7:30 AM 57.2 °F - 48.2 °F 72% 30.24 in - NE 5.8 mph - N/A   Clear
8:00 AM 59.0 °F - 48.2 °F 67% 30.27 in - NE 3.5 mph - N/A   Clear
8:30 AM 62.6 °F - 48.2 °F 59% 30.27 in - NE 6.9 mph - N/A   Clear
9:30 AM 69.8 °F - 50.0 °F 49% 30.27 in - NE 8.1 mph - N/A   Clear
10:00 AM 71.6 °F - 50.0 °F 46% 30.27 in - ENE 8.1 mph - N/A   Clear
10:30 AM 73.4 °F - 51.8 °F 47% 30.27 in - NE 8.1 mph - N/A   Clear
11:00 AM 77.0 °F - 53.6 °F 44% 30.27 in - ENE 6.9 mph - N/A   Clear
11:30 AM 80.6 °F 80.3 °F 53.6 °F 39% 30.27 in - ENE 5.8 mph - N/A   Clear
12:00 PM 80.6 °F 80.3 °F 53.6 °F 39% 30.27 in - ENE 6.9 mph - N/A   Clear
12:30 PM 82.4 °F 81.4 °F 53.6 °F 37% 30.27 in - ENE 6.9 mph - N/A   Clear
1:00 PM 84.2 °F - 51.8 °F 33% 30.27 in - NE 8.1 mph - N/A   Clear
1:30 PM 86.0 °F 84.2 °F 53.6 °F 33% 30.27 in - NNE 9.2 mph - N/A   Clear
2:00 PM 87.8 °F - 48.2 °F 25% 30.24 in - ENE 5.8 mph - N/A   Clear
2:30 PM 87.8 °F - 44.6 °F 22% 30.24 in - NNE 6.9 mph - N/A   Clear
3:00 PM 89.6 °F - 44.6 °F 21% 30.24 in - NE 4.6 mph - N/A   Clear
3:30 PM 91.4 °F - 42.8 °F 18% 30.24 in - ENE 2.3 mph - N/A   Clear
4:00 PM 91.4 °F - 42.8 °F 18% 30.21 in - North 5.8 mph - N/A   Clear
4:30 PM 89.6 °F - 44.6 °F 21% 30.21 in - ENE 3.5 mph - N/A   Clear
5:00 PM 91.4 °F - 39.2 °F 16% 30.21 in - NNE 6.9 mph - N/A   Clear
5:30 PM 91.4 °F - 39.2 °F 16% 30.18 in - NNE 9.2 mph - N/A   Clear
6:00 PM 91.4 °F - 41.0 °F 17% 30.18 in - North 11.5 mph - N/A   Clear
6:30 PM 91.4 °F - 39.2 °F 16% 30.18 in - NE 9.2 mph - N/A   Clear
7:00 PM 89.6 °F - 32.0 °F 13% 30.18 in - NNE 11.5 mph - N/A   Clear
7:30 PM 89.6 °F - 32.0 °F 13% 30.18 in - NNE 10.4 mph - N/A   Clear
8:00 PM 87.8 °F - 33.8 °F 15% 30.18 in - NE 11.5 mph - N/A   Clear
8:30 PM 86.0 °F - 35.6 °F 17% 30.21 in - NE 12.7 mph - N/A   Clear
9:00 PM 84.2 °F - 37.4 °F 19% 30.21 in - NE 10.4 mph - N/A   Clear
9:30 PM 80.6 °F - 37.4 °F 21% 30.21 in - NE 10.4 mph - N/A   Clear
10:00 PM 75.2 °F - 39.2 °F 27% 30.21 in - NE 8.1 mph - N/A   Clear
10:30 PM 71.6 °F - 42.8 °F 35% 30.21 in - NE 9.2 mph - N/A   Clear
11:00 PM 69.8 °F - 44.6 °F 40% 30.24 in - NE 8.1 mph - N/A   Clear
11:30 PM 71.6 °F - 46.4 °F 41% 30.24 in - ENE 9.2 mph - N/A   Clear